Location: Madrid
(40.4000°N, 3.6830°W)
Time: 13:09:11
(UTC+01:00)

ISS - Pass Details

Date: 11 December 2019
Orbit: 411 x 421 km, 51.6° (Epoch: 11 December)

Event Time Altitude Azimuth Distance (km) Brightness Sun altitude
Rises 19:11:12 0° 299° (WNW) 2,357 0.7 -15.3°
Reaches altitude 10° 19:13:26 10° 288° (WNW) 1,493 -0.1 -15.7°
Maximum altitude 19:16:25 30° 225° (SW) 772 -1.8 -16.2°
Drops below altitude 10° 19:19:24 10° 162° (SSE) 1,489 -1.0 -16.8°
Enters shadow 19:21:26 - 152° (SSE) 2,273 -0.2 -17.1°
